Total_Precipitation_Accumulation
0.53 0.44 0.56 0.64 0.57 0.62 0.89 0.87 0.80 0.49 0.45 0.49 0.48 0.50 0.53 0.56 0.54 0.53 0.55 0.64 0.79 0.90 0.89 0.90 0.92 0.95 0.93 0.97 1.09 1.19 1.17 1.28 1.37 1.50 1.59 1.55 1.54 1.59 1.67 1.75 1.74 1.76 1.77 1.70
0.56 0.35 0.45 0.53 0.44 0.45 0.52 0.49 0.46 0.34 0.39 0.44 0.44 0.41 0.43 0.44 0.49 0.52 0.53 0.59 0.66 0.75 0.83 0.93 1.01 1.03 1.02 0.99 1.06 1.18 1.17 1.23 1.29 1.44 1.58 1.55 1.48 1.56 1.70 1.80 1.77 1.73 1.75 1.73
0.95 0.40 0.71 0.80 0.52 0.47 0.51 0.49 0.44 0.50 0.51 0.45 0.41 0.42 0.48 0.49 0.50 0.53 0.54 0.55 0.56 0.67 0.81 0.91 1.01 1.03 1.05 1.03 1.06 1.16 1.20 1.23 1.30 1.43 1.51 1.55 1.52 1.56 1.68 1.79 1.79 1.75 1.72 1.71
1.59 1.04 1.36 0.74 0.41 0.40 0.46 0.50 0.48 0.48 0.45 0.47 0.49 0.50 0.55 0.55 0.58 0.57 0.58 0.58 0.58 0.67 0.79 0.83 0.91 0.96 1.00 0.97 1.10 1.19 1.21 1.22 1.29 1.39 1.44 1.55 1.58 1.58 1.71 1.77 1.71 1.70 1.70 1.67
2.16 1.48 0.77 0.42 0.39 0.51 0.60 0.63 0.51 0.42 0.34 0.35 0.39 0.44 0.55 0.51 0.54 0.58 0.58 0.62 0.64 0.68 0.77 0.77 0.83 0.90 0.96 0.93 1.03 1.14 1.19 1.16 1.22 1.34 1.40 1.49 1.55 1.61 1.70 1.79 1.73 1.65 1.63 1.67
2.37 1.72 0.84 0.53 0.34 0.39 0.56 0.78 0.48 0.39 0.39 0.39 0.43 0.62 0.62 0.54 0.52 0.51 0.50 0.55 0.63 0.66 0.70 0.73 0.77 0.82 0.88 0.94 0.98 1.10 1.16 1.07 1.14 1.24 1.33 1.44 1.50 1.57 1.64 1.66 1.66 1.66 1.62 1.63
1.88 1.55 0.67 0.42 0.33 0.39 0.84 0.95 0.52 0.46 0.49 0.50 0.62 0.72 0.62 0.58 0.58 0.58 0.56 0.56 0.60 0.62 0.67 0.74 0.77 0.78 0.83 0.92 0.99 1.06 1.13 1.06 1.11 1.17 1.26 1.38 1.49 1.50 1.58 1.63 1.63 1.67 1.67 1.64
1.37 1.59 0.82 0.41 0.46 0.81 0.98 0.59 0.50 0.47 0.46 0.50 0.51 0.48 0.46 0.50 0.59 0.66 0.64 0.59 0.61 0.64 0.68 0.71 0.73 0.77 0.81 0.85 0.93 1.02 1.08 1.07 1.14 1.19 1.23 1.30 1.42 1.43 1.47 1.61 1.67 1.68 1.69 1.73
1.14 0.98 0.66 0.55 0.68 0.73 0.64 0.56 0.46 0.45 0.44 0.48 0.47 0.46 0.50 0.53 0.60 0.69 0.71 0.68 0.68 0.70 0.69 0.71 0.74 0.78 0.86 0.88 0.90 1.02 1.07 1.06 1.12 1.22 1.26 1.30 1.35 1.38 1.44 1.53 1.63 1.66 1.62 1.62
0.80 0.57 0.45 0.44 0.46 0.45 0.44 0.46 0.42 0.42 0.44 0.48 0.50 0.48 0.53 0.56 0.61 0.67 0.70 0.74 0.76 0.76 0.75 0.76 0.77 0.82 0.90 0.93 0.92 1.02 1.05 1.05 1.11 1.17 1.24 1.29 1.27 1.24 1.28 1.40 1.55 1.57 1.56 1.50
0.61 0.41 0.39 0.37 0.37 0.38 0.35 0.33 0.33 0.33 0.35 0.40 0.45 0.48 0.55 0.58 0.63 0.70 0.72 0.76 0.78 0.79 0.82 0.84 0.81 0.86 0.91 0.94 0.94 1.02 1.00 0.98 1.06 1.08 1.17 1.29 1.28 1.24 1.25 1.26 1.46 1.66 1.61 1.55
0.60 0.45 0.55 0.45 0.37 0.36 0.35 0.34 0.35 0.36 0.33 0.32 0.38 0.47 0.50 0.54 0.59 0.69 0.74 0.75 0.76 0.78 0.83 0.91 0.89 0.90 0.93 0.97 0.96 0.99 1.00 0.96 1.00 1.05 1.10 1.19 1.23 1.29 1.43 1.41 1.44 1.47 1.50 1.60
0.49 0.38 0.39 0.37 0.33 0.33 0.35 0.35 0.34 0.35 0.37 0.35 0.35 0.41 0.47 0.52 0.57 0.65 0.70 0.74 0.78 0.83 0.86 0.92 0.94 0.95 0.97 0.97 0.98 1.01 1.02 1.00 1.01 1.03 1.07 1.14 1.14 1.14 1.31 1.46 1.51 1.47 1.41 1.45
0.32 0.32 0.31 0.27 0.30 0.31 0.32 0.32 0.30 0.30 0.32 0.34 0.35 0.37 0.40 0.45 0.50 0.60 0.72 0.78 0.79 0.80 0.84 0.90 0.93 0.98 1.02 1.03 1.04 1.03 1.03 1.09 1.10 1.06 1.09 1.15 1.13 1.08 1.10 1.19 1.30 1.39 1.43 1.44
0.25 0.29 0.30 0.26 0.26 0.29 0.32 0.32 0.30 0.31 0.33 0.33 0.33 0.35 0.38 0.44 0.50 0.63 0.74 0.77 0.77 0.79 0.84 0.88 0.90 0.98 1.02 1.09 1.11 1.04 1.06 1.11 1.13 1.11 1.13 1.18 1.17 1.14 1.13 1.13 1.14 1.20 1.28 1.40
0.26 0.25 0.24 0.25 0.27 0.29 0.32 0.34 0.35 0.37 0.38 0.38 0.37 0.39 0.42 0.44 0.49 0.57 0.68 0.74 0.77 0.82 0.87 0.88 0.93 1.02 1.07 1.12 1.15 1.10 1.12 1.23 1.26 1.19 1.17 1.22 1.24 1.24 1.21 1.19 1.20 1.18 1.21 1.30
0.32 0.28 0.26 0.26 0.26 0.28 0.33 0.38 0.39 0.39 0.39 0.40 0.40 0.41 0.41 0.42 0.43 0.49 0.60 0.70 0.76 0.81 0.85 0.90 0.96 1.01 1.06 1.14 1.17 1.15 1.15 1.23 1.32 1.24 1.19 1.25 1.33 1.32 1.26 1.25 1.26 1.21 1.17 1.28
0.31 0.31 0.29 0.29 0.29 0.30 0.32 0.36 0.37 0.36 0.38 0.39 0.38 0.38 0.40 0.43 0.46 0.51 0.59 0.64 0.66 0.68 0.76 0.87 0.97 1.02 1.04 1.13 1.19 1.17 1.16 1.20 1.24 1.24 1.22 1.29 1.37 1.36 1.33 1.31 1.28 1.26 1.21 1.27
0.23 0.24 0.24 0.25 0.25 0.27 0.30 0.33 0.34 0.33 0.34 0.35 0.36 0.39 0.43 0.46 0.49 0.51 0.53 0.55 0.59 0.68 0.77 0.87 1.00 0.97 0.98 1.09 1.21 1.19 1.18 1.21 1.25 1.26 1.22 1.34 1.40 1.36 1.33 1.31 1.29 1.26 1.27 1.28
0.22 0.22 0.23 0.24 0.23 0.25 0.28 0.29 0.31 0.31 0.32 0.34 0.36 0.39 0.43 0.46 0.48 0.49 0.51 0.54 0.64 0.79 0.83 0.92 0.95 0.96 0.97 1.01 1.12 1.15 1.22 1.24 1.26 1.27 1.25 1.26 1.31 1.36 1.34 1.32 1.31 1.30 1.32 1.35
0.25 0.24 0.25 0.26 0.26 0.25 0.28 0.29 0.32 0.32 0.31 0.35 0.38 0.42 0.44 0.45 0.47 0.51 0.55 0.58 0.62 0.73 0.82 0.93 0.95 1.00 1.03 1.08 1.14 1.18 1.24 1.26 1.29 1.32 1.31 1.29 1.30 1.33 1.32 1.32 1.33 1.31 1.32 1.34
0.31 0.30 0.30 0.30 0.30 0.29 0.29 0.30 0.32 0.35 0.35 0.39 0.42 0.43 0.44 0.44 0.46 0.50 0.56 0.64 0.68 0.82 0.89 0.90 0.98 1.13 1.24 1.24 1.14 1.16 1.22 1.23 1.27 1.31 1.33 1.30 1.31 1.34 1.32 1.32 1.35 1.32 1.29 1.31
0.35 0.36 0.36 0.35 0.33 0.32 0.31 0.32 0.35 0.39 0.42 0.44 0.46 0.47 0.49 0.49 0.52 0.57 0.62 0.63 0.71 0.89 0.95 0.99 1.15 1.32 1.37 1.21 1.12 1.15 1.20 1.22 1.24 1.29 1.34 1.33 1.32 1.33 1.33 1.32 1.32 1.31 1.30 1.28
0.39 0.40 0.41 0.41 0.39 0.36 0.36 0.38 0.39 0.44 0.49 0.50 0.52 0.54 0.57 0.57 0.55 0.57 0.67 0.75 0.85 0.96 1.01 1.11 1.26 1.36 1.36 1.21 1.14 1.17 1.22 1.22 1.23 1.28 1.32 1.33 1.35 1.35 1.34 1.33 1.33 1.28 1.23 1.21
0.42 0.43 0.43 0.43 0.46 0.46 0.46 0.46 0.46 0.49 0.52 0.53 0.54 0.56 0.61 0.63 0.68 0.68 0.70 0.77 0.89 0.98 1.01 1.09 1.20 1.28 1.27 1.23 1.18 1.21 1.24 1.27 1.31 1.36 1.36 1.35 1.35 1.35 1.34 1.30 1.29 1.27 1.24 1.20
0.46 0.47 0.48 0.50 0.54 0.56 0.55 0.54 0.57 0.57 0.57 0.58 0.58 0.60 0.63 0.68 0.72 0.75 0.79 0.83 0.91 0.99 1.01 1.05 1.12 1.19 1.22 1.23 1.22 1.23 1.26 1.31 1.35 1.33 1.30 1.30 1.29 1.30 1.29 1.26 1.21 1.20 1.19 1.17
0.52 0.52 0.52 0.54 0.56 0.60 0.63 0.64 0.66 0.68 0.67 0.67 0.70 0.69 0.70 0.74 0.78 0.82 0.85 0.90 0.95 1.00 1.03 1.07 1.12 1.18 1.23 1.26 1.28 1.29 1.28 1.27 1.27 1.28 1.29 1.28 1.25 1.25 1.24 1.22 1.20 1.18 1.16 1.14